Time,TemperatureF,DewpointF,PressureIn,WindDirection,WindDirectionDegrees,WindSpeedMPH,WindSpeedGustMPH,Humidity,HourlyPrecipIn,Conditions,Clouds,dailyrainin,SoftwareType,DateUTC
2013-07-11 00:01:00,70.3,69.9,29.94,East,94,0.0,0.0,99,0.00,,,0.00,HR-IXPWINDi_r2_v1.2.,2013-07-11 04:01:00,
2013-07-11 00:06:00,70.3,69.9,29.94,East,94,0.0,0.0,99,0.00,,,0.00,HR-IXPWINDi_r2_v1.2.,2013-07-11 04:06:00,
2013-07-11 00:11:00,70.3,69.9,29.94,East,94,0.0,0.0,99,0.00,,,0.00,HR-IXPWINDi_r2_v1.2.,2013-07-11 04:11:00,
2013-07-11 00:16:00,70.3,69.9,29.94,East,94,0.0,0.0,99,0.00,,,0.00,HR-IXPWINDi_r2_v1.2.,2013-07-11 04:16:00,
2013-07-11 00:22:00,70.3,69.9,29.94,East,94,0.0,0.0,99,0.00,,,0.00,HR-IXPWINDi_r2_v1.2.,2013-07-11 04:22:00,
2013-07-11 00:27:00,70.3,69.9,29.94,East,94,0.0,0.0,99,0.00,,,0.00,HR-IXPWINDi_r2_v1.2.,2013-07-11 04:27:00,
2013-07-11 00:32:00,70.3,69.9,29.94,East,94,0.0,0.0,99,0.00,,,0.00,HR-IXPWINDi_r2_v1.2.,2013-07-11 04:32:00,
2013-07-11 00:37:00,70.3,69.9,29.93,East,94,0.0,0.0,99,0.00,,,0.00,HR-IXPWINDi_r2_v1.2.,2013-07-11 04:37:00,
2013-07-11 00:42:00,70.3,69.9,29.93,East,94,0.0,0.0,99,0.00,,,0.00,HR-IXPWINDi_r2_v1.2.,2013-07-11 04:42:00,
2013-07-11 00:47:00,70.2,69.8,29.93,East,94,1.0,1.0,99,0.00,,,0.00,HR-IXPWINDi_r2_v1.2.,2013-07-11 04:47:00,
2013-07-11 00:52:00,70.2,69.8,29.92,East,94,0.0,1.0,99,0.00,,,0.00,HR-IXPWINDi_r2_v1.2.,2013-07-11 04:52:00,
2013-07-11 00:58:00,70.2,69.8,29.93,East,94,0.0,1.0,99,0.00,,,0.00,HR-IXPWINDi_r2_v1.2.,2013-07-11 04:58:00,
2013-07-11 01:03:00,70.2,69.8,29.93,East,94,0.0,0.0,99,0.00,,,0.00,HR-IXPWINDi_r2_v1.2.,2013-07-11 05:03:00,
2013-07-11 01:08:00,70.2,69.8,29.92,East,94,0.0,1.0,99,0.00,,,0.00,HR-IXPWINDi_r2_v1.2.,2013-07-11 05:08:00,
2013-07-11 01:13:00,70.3,69.9,29.92,East,94,0.0,1.0,99,0.00,,,0.00,HR-IXPWINDi_r2_v1.2.,2013-07-11 05:13:00,
2013-07-11 01:18:00,70.2,69.8,29.92,East,94,0.0,0.0,99,0.00,,,0.00,HR-IXPWINDi_r2_v1.2.,2013-07-11 05:18:00,
2013-07-11 01:23:00,70.2,69.8,29.92,East,94,0.0,0.0,99,0.00,,,0.00,HR-IXPWINDi_r2_v1.2.,2013-07-11 05:23:00,
2013-07-11 01:28:00,70.2,69.8,29.91,East,94,0.0,0.0,99,0.00,,,0.00,HR-IXPWINDi_r2_v1.2.,2013-07-11 05:28:00,
2013-07-11 01:33:00,70.1,69.7,29.91,East,94,0.0,0.0,99,0.00,,,0.00,HR-IXPWINDi_r2_v1.2.,2013-07-11 05:33:00,
2013-07-11 01:39:00,70.1,69.7,29.91,East,94,0.0,0.0,99,0.00,,,0.00,HR-IXPWINDi_r2_v1.2.,2013-07-11 05:39:00,
2013-07-11 01:44:00,70.0,69.6,29.91,East,94,0.0,0.0,99,0.00,,,0.00,HR-IXPWINDi_r2_v1.2.,2013-07-11 05:44:00,
2013-07-11 01:49:00,69.9,69.5,29.91,East,94,0.0,0.0,99,0.00,,,0.00,HR-IXPWINDi_r2_v1.2.,2013-07-11 05:49:00,
2013-07-11 01:54:00,69.8,69.4,29.91,East,94,0.0,0.0,99,0.00,,,0.00,HR-IXPWINDi_r2_v1.2.,2013-07-11 05:54:00,
2013-07-11 01:59:00,69.8,69.4,29.91,East,94,0.0,0.0,99,0.00,,,0.00,HR-IXPWINDi_r2_v1.2.,2013-07-11 05:59:00,
2013-07-11 02:04:00,69.8,69.4,29.91,East,94,0.0,0.0,99,0.00,,,0.00,HR-IXPWINDi_r2_v1.2.,2013-07-11 06:04:00,
2013-07-11 02:09:00,69.7,69.3,29.91,East,94,0.0,0.0,99,0.00,,,0.00,HR-IXPWINDi_r2_v1.2.,2013-07-11 06:09:00,
2013-07-11 02:16:00,69.7,69.3,29.91,East,94,1.0,2.0,99,0.00,,,0.00,HR-IXPWINDi_r2_v1.2.,2013-07-11 06:16:00,
2013-07-11 02:21:00,69.7,69.3,29.91,East,94,0.0,2.0,99,0.00,,,0.00,HR-IXPWINDi_r2_v1.2.,2013-07-11 06:21:00,
2013-07-11 02:26:00,69.7,69.3,29.91,East,94,0.0,1.0,99,0.00,,,0.00,HR-IXPWINDi_r2_v1.2.,2013-07-11 06:26:00,
2013-07-11 02:31:00,69.7,69.3,29.91,East,94,0.0,1.0,99,0.00,,,0.00,HR-IXPWINDi_r2_v1.2.,2013-07-11 06:31:00,
2013-07-11 02:36:00,69.6,69.2,29.91,East,94,0.0,1.0,99,0.00,,,0.00,HR-IXPWINDi_r2_v1.2.,2013-07-11 06:36:00,
2013-07-11 02:41:00,69.7,69.3,29.90,East,94,0.0,1.0,99,0.00,,,0.00,HR-IXPWINDi_r2_v1.2.,2013-07-11 06:41:00,
2013-07-11 02:47:00,69.7,69.3,29.90,East,94,0.0,1.0,99,0.00,,,0.00,HR-IXPWINDi_r2_v1.2.,2013-07-11 06:47:00,
2013-07-11 02:52:00,69.7,69.3,29.90,ESE,118,0.0,3.0,99,0.00,,,0.00,HR-IXPWINDi_r2_v1.2.,2013-07-11 06:52:00,
2013-07-11 02:57:00,69.8,69.4,29.90,ESE,118,0.0,3.0,99,0.00,,,0.00,HR-IXPWINDi_r2_v1.2.,2013-07-11 06:57:00,
2013-07-11 03:02:00,69.8,69.4,29.89,ESE,118,0.0,1.0,99,0.00,,,0.00,HR-IXPWINDi_r2_v1.2.,2013-07-11 07:02:00,
2013-07-11 03:08:00,69.7,69.3,29.89,ESE,118,0.0,2.0,99,0.00,,,0.00,HR-IXPWINDi_r2_v1.2.,2013-07-11 07:08:00,
2013-07-11 03:13:00,69.8,69.4,29.90,ESE,118,0.0,2.0,99,0.00,,,0.00,HR-IXPWINDi_r2_v1.2.,2013-07-11 07:13:00,
2013-07-11 03:18:00,69.9,69.5,29.90,SE,144,2.0,3.0,99,0.00,,,0.00,HR-IXPWINDi_r2_v1.2.,2013-07-11 07:18:00,
2013-07-11 03:23:00,70.1,69.7,29.90,SSE,147,2.0,7.0,99,0.00,,,0.00,HR-IXPWINDi_r2_v1.2.,2013-07-11 07:23:00,
2013-07-11 03:29:00,70.2,69.8,29.90,ENE,61,0.0,7.0,99,0.00,,,0.00,HR-IXPWINDi_r2_v1.2.,2013-07-11 07:29:00,
2013-07-11 03:34:00,70.2,69.8,29.90,ENE,67,0.0,3.0,99,0.00,,,0.00,HR-IXPWINDi_r2_v1.2.,2013-07-11 07:34:00,
2013-07-11 03:39:00,70.2,69.8,29.90,ESE,112,0.0,4.0,99,0.00,,,0.00,HR-IXPWINDi_r2_v1.2.,2013-07-11 07:39:00,
2013-07-11 03:44:00,70.2,69.8,29.90,ESE,112,0.0,4.0,99,0.00,,,0.00,HR-IXPWINDi_r2_v1.2.,2013-07-11 07:44:00,
2013-07-11 03:49:00,70.2,69.8,29.90,ESE,112,0.0,1.0,99,0.00,,,0.00,HR-IXPWINDi_r2_v1.2.,2013-07-11 07:49:00,
2013-07-11 03:55:00,70.1,69.7,29.90,ESE,112,0.0,0.0,99,0.00,,,0.00,HR-IXPWINDi_r2_v1.2.,2013-07-11 07:55:00,
2013-07-11 04:00:00,70.1,69.7,29.90,ESE,112,0.0,0.0,99,0.00,,,0.00,HR-IXPWINDi_r2_v1.2.,2013-07-11 08:00:00,
2013-07-11 04:05:00,70.1,69.7,29.90,ESE,112,0.0,0.0,99,0.00,,,0.00,HR-IXPWINDi_r2_v1.2.,2013-07-11 08:05:00,
2013-07-11 04:11:00,70.1,69.7,29.90,ESE,112,0.0,0.0,99,0.00,,,0.00,HR-IXPWINDi_r2_v1.2.,2013-07-11 08:11:00,
2013-07-11 04:16:00,70.1,69.7,29.90,ESE,113,0.0,0.0,99,0.00,,,0.00,HR-IXPWINDi_r2_v1.2.,2013-07-11 08:16:00,
2013-07-11 04:21:00,70.1,69.7,29.90,ESE,113,0.0,0.0,99,0.00,,,0.00,HR-IXPWINDi_r2_v1.2.,2013-07-11 08:21:00,
2013-07-11 04:26:00,70.1,69.7,29.90,ESE,113,0.0,0.0,99,0.00,,,0.00,HR-IXPWINDi_r2_v1.2.,2013-07-11 08:26:00,
2013-07-11 04:31:00,70.0,69.6,29.90,ESE,113,0.0,0.0,99,0.00,,,0.00,HR-IXPWINDi_r2_v1.2.,2013-07-11 08:31:00,
2013-07-11 04:37:00,70.0,69.6,29.91,ESE,113,0.0,0.0,99,0.00,,,0.00,HR-IXPWINDi_r2_v1.2.,2013-07-11 08:37:00,
2013-07-11 04:42:00,69.9,69.5,29.90,ESE,113,0.0,0.0,99,0.00,,,0.00,HR-IXPWINDi_r2_v1.2.,2013-07-11 08:42:00,
2013-07-11 04:47:00,70.0,69.6,29.91,ESE,113,0.0,0.0,99,0.00,,,0.00,HR-IXPWINDi_r2_v1.2.,2013-07-11 08:47:00,
2013-07-11 04:52:00,70.0,69.6,29.91,ESE,113,0.0,0.0,99,0.00,,,0.00,HR-IXPWINDi_r2_v1.2.,2013-07-11 08:52:00,
2013-07-11 04:57:00,70.0,69.6,29.91,ESE,113,0.0,0.0,99,0.00,,,0.00,HR-IXPWINDi_r2_v1.2.,2013-07-11 08:57:00,
2013-07-11 05:02:00,70.0,69.6,29.91,ESE,113,0.0,0.0,99,0.00,,,0.00,HR-IXPWINDi_r2_v1.2.,2013-07-11 09:02:00,
2013-07-11 05:07:00,70.0,69.6,29.91,ESE,113,0.0,0.0,99,0.00,,,0.00,HR-IXPWINDi_r2_v1.2.,2013-07-11 09:07:00,
2013-07-11 05:12:00,70.0,69.6,29.91,ESE,113,0.0,0.0,99,0.00,,,0.00,HR-IXPWINDi_r2_v1.2.,2013-07-11 09:12:00,
2013-07-11 05:18:00,70.0,69.6,29.91,ESE,113,0.0,0.0,99,0.00,,,0.00,HR-IXPWINDi_r2_v1.2.,2013-07-11 09:18:00,
2013-07-11 05:23:00,70.0,69.6,29.90,ESE,113,0.0,0.0,99,0.00,,,0.00,HR-IXPWINDi_r2_v1.2.,2013-07-11 09:23:00,
2013-07-11 05:28:00,70.0,69.6,29.91,ESE,113,0.0,0.0,99,0.00,,,0.00,HR-IXPWINDi_r2_v1.2.,2013-07-11 09:28:00,
2013-07-11 05:33:00,70.0,69.6,29.90,ESE,113,0.0,0.0,99,0.00,,,0.00,HR-IXPWINDi_r2_v1.2.,2013-07-11 09:33:00,
2013-07-11 05:38:00,70.0,69.6,29.90,ESE,113,0.0,0.0,99,0.00,,,0.00,HR-IXPWINDi_r2_v1.2.,2013-07-11 09:38:00,
2013-07-11 05:43:00,70.0,69.6,29.90,ESE,113,0.0,0.0,99,0.00,,,0.00,HR-IXPWINDi_r2_v1.2.,2013-07-11 09:43:00,
2013-07-11 05:48:00,70.0,69.6,29.91,ESE,113,0.0,0.0,99,0.00,,,0.00,HR-IXPWINDi_r2_v1.2.,2013-07-11 09:48:00,
2013-07-11 05:53:00,70.0,69.6,29.91,ESE,113,0.0,0.0,99,0.00,,,0.00,HR-IXPWINDi_r2_v1.2.,2013-07-11 09:53:00,
2013-07-11 05:59:00,69.9,69.5,29.91,ESE,113,0.0,0.0,99,0.00,,,0.00,HR-IXPWINDi_r2_v1.2.,2013-07-11 09:59:00,
2013-07-11 06:04:00,69.9,69.5,29.91,ESE,113,0.0,0.0,99,0.00,,,0.00,HR-IXPWINDi_r2_v1.2.,2013-07-11 10:04:00,
2013-07-11 06:09:00,69.9,69.5,29.91,ESE,113,0.0,0.0,99,0.00,,,0.00,HR-IXPWINDi_r2_v1.2.,2013-07-11 10:09:00,
2013-07-11 06:14:00,69.9,69.5,29.91,ESE,113,0.0,0.0,99,0.00,,,0.00,HR-IXPWINDi_r2_v1.2.,2013-07-11 10:14:00,
2013-07-11 06:20:00,69.9,69.5,29.91,ESE,113,0.0,0.0,99,0.00,,,0.00,HR-IXPWINDi_r2_v1.2.,2013-07-11 10:20:00,
2013-07-11 06:25:00,69.9,69.5,29.92,West,261,0.0,1.0,99,0.00,,,0.00,HR-IXPWINDi_r2_v1.2.,2013-07-11 10:25:00,
2013-07-11 06:30:00,69.9,69.5,29.92,East,84,0.0,1.0,99,0.00,,,0.00,HR-IXPWINDi_r2_v1.2.,2013-07-11 10:30:00,
2013-07-11 06:35:00,69.9,69.5,29.92,East,84,0.0,0.0,99,0.00,,,0.00,HR-IXPWINDi_r2_v1.2.,2013-07-11 10:35:00,
2013-07-11 06:40:00,69.9,69.5,29.92,East,84,0.0,0.0,99,0.00,,,0.00,HR-IXPWINDi_r2_v1.2.,2013-07-11 10:40:00,
2013-07-11 06:46:00,69.9,69.5,29.92,East,84,0.0,0.0,99,0.00,,,0.00,HR-IXPWINDi_r2_v1.2.,2013-07-11 10:46:00,
2013-07-11 06:51:00,69.9,69.5,29.92,East,84,0.0,0.0,99,0.00,,,0.00,HR-IXPWINDi_r2_v1.2.,2013-07-11 10:51:00,
2013-07-11 06:56:00,69.9,69.5,29.93,East,84,0.0,0.0,99,0.00,,,0.00,HR-IXPWINDi_r2_v1.2.,2013-07-11 10:56:00,
2013-07-11 07:01:00,70.0,69.6,29.93,East,84,0.0,0.0,99,0.00,,,0.00,HR-IXPWINDi_r2_v1.2.,2013-07-11 11:01:00,
2013-07-11 07:06:00,70.0,69.6,29.93,East,84,0.0,0.0,99,0.00,,,0.00,HR-IXPWINDi_r2_v1.2.,2013-07-11 11:06:00,
2013-07-11 07:11:00,70.0,69.6,29.93,East,84,0.0,0.0,99,0.00,,,0.00,HR-IXPWINDi_r2_v1.2.,2013-07-11 11:11:00,
2013-07-11 07:16:00,70.0,69.6,29.93,East,84,0.0,0.0,99,0.00,,,0.00,HR-IXPWINDi_r2_v1.2.,2013-07-11 11:16:00,
2013-07-11 07:22:00,70.1,69.7,29.93,East,84,0.0,0.0,99,0.00,,,0.00,HR-IXPWINDi_r2_v1.2.,2013-07-11 11:22:00,
2013-07-11 07:27:00,70.1,69.7,29.93,East,84,0.0,0.0,99,0.00,,,0.00,HR-IXPWINDi_r2_v1.2.,2013-07-11 11:27:00,
2013-07-11 07:32:00,70.2,69.8,29.93,East,84,0.0,0.0,99,0.00,,,0.00,HR-IXPWINDi_r2_v1.2.,2013-07-11 11:32:00,
2013-07-11 07:37:00,70.2,69.8,29.93,East,84,0.0,0.0,99,0.00,,,0.00,HR-IXPWINDi_r2_v1.2.,2013-07-11 11:37:00,
2013-07-11 07:42:00,70.3,69.9,29.93,East,84,0.0,0.0,99,0.00,,,0.00,HR-IXPWINDi_r2_v1.2.,2013-07-11 11:42:00,
2013-07-11 07:47:00,70.4,70.0,29.94,East,84,0.0,0.0,99,0.00,,,0.00,HR-IXPWINDi_r2_v1.2.,2013-07-11 11:47:00,
2013-07-11 07:53:00,70.6,70.5,29.93,East,84,0.0,0.0,100,0.00,,,0.00,HR-IXPWINDi_r2_v1.2.,2013-07-11 11:53:00,
2013-07-11 07:58:00,70.8,70.7,29.94,East,84,0.0,0.0,100,0.00,,,0.00,HR-IXPWINDi_r2_v1.2.,2013-07-11 11:58:00,
2013-07-11 08:03:00,70.9,70.5,29.94,East,84,0.0,1.0,99,0.00,,,0.00,HR-IXPWINDi_r2_v1.2.,2013-07-11 12:03:00,
2013-07-11 08:08:00,71.0,70.6,29.94,East,84,0.0,1.0,99,0.00,,,0.00,HR-IXPWINDi_r2_v1.2.,2013-07-11 12:08:00,
2013-07-11 08:13:00,71.0,70.6,29.94,East,84,0.0,1.0,99,0.00,,,0.00,HR-IXPWINDi_r2_v1.2.,2013-07-11 12:13:00,
2013-07-11 08:18:00,71.0,70.6,29.94,East,84,0.0,0.0,99,0.00,,,0.00,HR-IXPWINDi_r2_v1.2.,2013-07-11 12:18:00,
2013-07-11 08:24:00,71.3,71.2,29.94,East,84,0.0,0.0,100,0.00,,,0.00,HR-IXPWINDi_r2_v1.2.,2013-07-11 12:24:00,
2013-07-11 08:29:00,71.3,71.2,29.94,East,84,0.0,0.0,100,0.00,,,0.00,HR-IXPWINDi_r2_v1.2.,2013-07-11 12:29:00,
2013-07-11 08:34:00,71.5,71.4,29.94,East,84,0.0,0.0,100,0.00,,,0.00,HR-IXPWINDi_r2_v1.2.,2013-07-11 12:34:00,
2013-07-11 08:39:00,71.6,71.2,29.94,East,84,0.0,0.0,99,0.00,,,0.00,HR-IXPWINDi_r2_v1.2.,2013-07-11 12:39:00,
2013-07-11 08:44:00,71.9,71.5,29.94,East,84,0.0,0.0,99,0.00,,,0.00,HR-IXPWINDi_r2_v1.2.,2013-07-11 12:44:00,
2013-07-11 08:49:00,71.7,71.3,29.94,East,84,0.0,0.0,99,0.00,,,0.00,HR-IXPWINDi_r2_v1.2.,2013-07-11 12:49:00,
2013-07-11 08:55:00,71.7,71.3,29.94,East,84,0.0,1.0,99,0.00,,,0.00,HR-IXPWINDi_r2_v1.2.,2013-07-11 12:55:00,
2013-07-11 09:00:00,71.9,71.8,29.94,East,84,0.0,1.0,100,0.00,,,0.00,HR-IXPWINDi_r2_v1.2.,2013-07-11 13:00:00,
2013-07-11 09:05:00,71.7,71.3,29.94,East,84,0.0,2.0,99,0.00,,,0.00,HR-IXPWINDi_r2_v1.2.,2013-07-11 13:05:00,
2013-07-11 09:11:00,72.0,71.9,29.94,East,84,1.0,2.0,100,0.00,,,0.00,HR-IXPWINDi_r2_v1.2.,2013-07-11 13:11:00,
2013-07-11 09:16:00,71.9,71.5,29.94,ESE,120,0.0,2.0,99,0.00,,,0.00,HR-IXPWINDi_r2_v1.2.,2013-07-11 13:16:00,
2013-07-11 09:21:00,71.9,71.5,29.94,ESE,119,0.0,4.0,99,0.00,,,0.00,HR-IXPWINDi_r2_v1.2.,2013-07-11 13:21:00,
2013-07-11 09:26:00,72.0,71.6,29.94,ESE,119,0.0,4.0,99,0.00,,,0.00,HR-IXPWINDi_r2_v1.2.,2013-07-11 13:26:00,
2013-07-11 09:32:00,71.9,71.5,29.94,ESE,119,0.0,2.0,99,0.00,,,0.00,HR-IXPWINDi_r2_v1.2.,2013-07-11 13:32:00,
2013-07-11 09:37:00,71.7,71.3,29.94,SE,136,0.0,2.0,99,0.00,,,0.00,HR-IXPWINDi_r2_v1.2.,2013-07-11 13:37:00,
2013-07-11 09:42:00,71.8,71.1,29.94,SE,136,0.0,3.0,98,0.00,,,0.00,HR-IXPWINDi_r2_v1.2.,2013-07-11 13:42:00,
2013-07-11 09:47:00,71.9,70.9,29.94,SE,136,0.0,3.0,97,0.00,,,0.00,HR-IXPWINDi_r2_v1.2.,2013-07-11 13:47:00,
2013-07-11 09:53:00,72.1,70.8,29.94,SE,135,0.0,2.0,96,0.00,,,0.00,HR-IXPWINDi_r2_v1.2.,2013-07-11 13:53:00,
2013-07-11 09:58:00,72.4,71.1,29.94,SE,135,0.0,2.0,96,0.00,,,0.00,HR-IXPWINDi_r2_v1.2.,2013-07-11 13:58:00,
2013-07-11 10:03:00,72.7,71.4,29.94,SE,135,0.0,2.0,96,0.00,,,0.00,HR-IXPWINDi_r2_v1.2.,2013-07-11 14:03:00,
2013-07-11 10:08:00,73.2,71.9,29.94,SE,146,1.0,2.0,96,0.00,,,0.00,HR-IXPWINDi_r2_v1.2.,2013-07-11 14:08:00,
2013-07-11 10:13:00,73.9,71.4,29.94,ESE,123,1.0,2.0,92,0.00,,,0.00,HR-IXPWINDi_r2_v1.2.,2013-07-11 14:13:00,
2013-07-11 10:18:00,75.2,72.7,29.94,SE,144,0.0,3.0,92,0.00,,,0.00,HR-IXPWINDi_r2_v1.2.,2013-07-11 14:18:00,
2013-07-11 10:23:00,75.9,73.7,29.94,SE,144,0.0,3.0,93,0.00,,,0.00,HR-IXPWINDi_r2_v1.2.,2013-07-11 14:23:00,
2013-07-11 10:28:00,76.4,72.5,29.94,SE,144,0.0,2.0,88,0.00,,,0.00,HR-IXPWINDi_r2_v1.2.,2013-07-11 14:28:00,
2013-07-11 10:35:00,76.8,71.5,29.94,ENE,62,1.0,3.0,84,0.00,,,0.00,HR-IXPWINDi_r2_v1.2.,2013-07-11 14:35:00,
2013-07-11 10:40:00,77.1,72.2,29.94,ENE,62,1.0,3.0,85,0.00,,,0.00,HR-IXPWINDi_r2_v1.2.,2013-07-11 14:40:00,
2013-07-11 10:45:00,77.4,72.1,29.94,ENE,62,0.0,2.0,84,0.00,,,0.00,HR-IXPWINDi_r2_v1.2.,2013-07-11 14:45:00,
2013-07-11 10:50:00,77.8,71.8,29.94,East,101,2.0,2.0,82,0.00,,,0.00,HR-IXPWINDi_r2_v1.2.,2013-07-11 14:50:00,
2013-07-11 10:55:00,78.0,72.0,29.94,East,101,0.0,2.0,82,0.00,,,0.00,HR-IXPWINDi_r2_v1.2.,2013-07-11 14:55:00,
2013-07-11 11:01:00,78.1,72.1,29.94,East,100,0.0,2.0,82,0.00,,,0.00,HR-IXPWINDi_r2_v1.2.,2013-07-11 15:01:00,
2013-07-11 11:06:00,78.1,71.7,29.94,ESE,109,0.0,2.0,81,0.00,,,0.00,HR-IXPWINDi_r2_v1.2.,2013-07-11 15:06:00,
2013-07-11 11:11:00,78.2,72.9,29.94,East,93,0.0,1.0,84,0.00,,,0.00,HR-IXPWINDi_r2_v1.2.,2013-07-11 15:11:00,
2013-07-11 11:16:00,78.8,72.8,29.93,ESE,109,0.0,4.0,82,0.00,,,0.00,HR-IXPWINDi_r2_v1.2.,2013-07-11 15:16:00,
2013-07-11 11:21:00,79.5,72.7,29.94,South,179,0.0,4.0,80,0.00,,,0.00,HR-IXPWINDi_r2_v1.2.,2013-07-11 15:21:00,
2013-07-11 11:26:00,79.5,71.2,29.93,NE,46,0.0,3.0,76,0.00,,,0.00,HR-IXPWINDi_r2_v1.2.,2013-07-11 15:26:00,
2013-07-11 11:31:00,79.7,74.0,29.93,NE,46,0.0,3.0,83,0.00,,,0.00,HR-IXPWINDi_r2_v1.2.,2013-07-11 15:31:00,
2013-07-11 11:37:00,80.2,73.0,29.93,ENE,66,0.0,3.0,79,0.00,,,0.00,HR-IXPWINDi_r2_v1.2.,2013-07-11 15:37:00,
2013-07-11 11:42:00,80.9,73.7,29.94,ENE,63,1.0,3.0,79,0.00,,,0.00,HR-IXPWINDi_r2_v1.2.,2013-07-11 15:42:00,
2013-07-11 11:47:00,81.1,73.2,29.93,North,5,2.0,2.0,77,0.00,,,0.00,HR-IXPWINDi_r2_v1.2.,2013-07-11 15:47:00,
2013-07-11 11:52:00,80.7,72.0,29.93,North,11,0.0,2.0,75,0.00,,,0.00,HR-IXPWINDi_r2_v1.2.,2013-07-11 15:52:00,
2013-07-11 11:57:00,80.5,71.8,29.93,NE,47,1.0,4.0,75,0.00,,,0.00,HR-IXPWINDi_r2_v1.2.,2013-07-11 15:57:00,
2013-07-11 12:03:00,80.4,71.7,29.93,SSW,207,0.0,4.0,75,0.00,,,0.00,HR-IXPWINDi_r2_v1.2.,2013-07-11 16:03:00,
2013-07-11 12:08:00,80.9,71.4,29.93,SSE,165,0.0,4.0,73,0.00,,,0.00,HR-IXPWINDi_r2_v1.2.,2013-07-11 16:08:00,
2013-07-11 12:13:00,81.1,72.0,29.93,ESE,105,0.0,2.0,74,0.00,,,0.00,HR-IXPWINDi_r2_v1.2.,2013-07-11 16:13:00,
2013-07-11 12:19:00,81.3,73.0,29.93,ESE,105,0.0,2.0,76,0.00,,,0.00,HR-IXPWINDi_r2_v1.2.,2013-07-11 16:19:00,
2013-07-11 12:24:00,81.1,73.9,29.93,NNE,31,1.0,3.0,79,0.00,,,0.00,HR-IXPWINDi_r2_v1.2.,2013-07-11 16:24:00,
2013-07-11 12:29:00,80.8,74.4,29.93,NNE,32,0.0,3.0,81,0.00,,,0.00,HR-IXPWINDi_r2_v1.2.,2013-07-11 16:29:00,
2013-07-11 12:34:00,80.8,72.9,29.93,NNE,32,0.0,2.0,77,0.00,,,0.00,HR-IXPWINDi_r2_v1.2.,2013-07-11 16:34:00,
2013-07-11 12:39:00,81.2,74.0,29.93,NNE,32,0.0,1.0,79,0.00,,,0.00,HR-IXPWINDi_r2_v1.2.,2013-07-11 16:39:00,
2013-07-11 12:45:00,81.6,73.6,29.93,NNE,30,0.0,1.0,77,0.00,,,0.00,HR-IXPWINDi_r2_v1.2.,2013-07-11 16:45:00,
2013-07-11 12:50:00,81.8,74.6,29.92,NNE,30,0.0,1.0,79,0.00,,,0.00,HR-IXPWINDi_r2_v1.2.,2013-07-11 16:50:00,
2013-07-11 12:55:00,81.9,74.7,29.92,NNE,30,1.0,1.0,79,0.00,,,0.00,HR-IXPWINDi_r2_v1.2.,2013-07-11 16:55:00,
2013-07-11 13:00:00,81.6,72.5,29.92,NNE,30,2.0,2.0,74,0.00,,,0.00,HR-IXPWINDi_r2_v1.2.,2013-07-11 17:00:00,
2013-07-11 13:06:00,81.3,72.2,29.91,NNE,30,0.0,2.0,74,0.00,,,0.00,HR-IXPWINDi_r2_v1.2.,2013-07-11 17:06:00,
2013-07-11 13:11:00,81.2,73.3,29.92,NNE,30,0.0,2.0,77,0.00,,,0.00,HR-IXPWINDi_r2_v1.2.,2013-07-11 17:11:00,
2013-07-11 13:16:00,81.3,71.8,29.91,NNE,30,1.0,2.0,73,0.00,,,0.00,HR-IXPWINDi_r2_v1.2.,2013-07-11 17:16:00,
2013-07-11 13:21:00,81.3,73.3,29.91,NNE,30,0.0,1.0,77,0.00,,,0.00,HR-IXPWINDi_r2_v1.2.,2013-07-11 17:21:00,
2013-07-11 13:26:00,81.4,71.9,29.91,NNE,30,0.0,1.0,73,0.00,,,0.00,HR-IXPWINDi_r2_v1.2.,2013-07-11 17:26:00,
2013-07-11 13:32:00,81.5,73.2,29.91,NNE,30,0.0,1.0,76,0.00,,,0.00,HR-IXPWINDi_r2_v1.2.,2013-07-11 17:32:00,
2013-07-11 13:37:00,81.5,72.0,29.91,NNE,30,0.0,2.0,73,0.00,,,0.00,HR-IXPWINDi_r2_v1.2.,2013-07-11 17:37:00,
2013-07-11 13:42:00,81.7,74.5,29.91,NNE,30,0.0,3.0,79,0.00,,,0.00,HR-IXPWINDi_r2_v1.2.,2013-07-11 17:42:00,
2013-07-11 13:48:00,82.5,73.3,29.91,South,177,1.0,3.0,74,0.00,,,0.00,HR-IXPWINDi_r2_v1.2.,2013-07-11 17:48:00,
2013-07-11 13:53:00,82.9,73.7,29.90,West,281,0.0,3.0,74,0.00,,,0.00,HR-IXPWINDi_r2_v1.2.,2013-07-11 17:53:00,
2013-07-11 13:58:00,83.2,74.4,29.90,SSW,205,0.0,2.0,75,0.00,,,0.00,HR-IXPWINDi_r2_v1.2.,2013-07-11 17:58:00,
2013-07-11 14:04:00,83.2,74.4,29.90,WSW,256,1.0,2.0,75,0.00,,,0.00,HR-IXPWINDi_r2_v1.2.,2013-07-11 18:04:00,
2013-07-11 14:09:00,82.8,75.9,29.90,NE,38,0.0,2.0,80,0.00,,,0.00,HR-IXPWINDi_r2_v1.2.,2013-07-11 18:09:00,
2013-07-11 14:14:00,82.2,72.2,29.90,NE,38,0.0,2.0,72,0.00,,,0.00,HR-IXPWINDi_r2_v1.2.,2013-07-11 18:14:00,
2013-07-11 14:19:00,81.9,73.5,29.90,SE,134,2.0,2.0,76,0.00,,,0.00,HR-IXPWINDi_r2_v1.2.,2013-07-11 18:19:00,
2013-07-11 14:24:00,81.9,73.5,29.90,SE,133,0.0,3.0,76,0.00,,,0.00,HR-IXPWINDi_r2_v1.2.,2013-07-11 18:24:00,
2013-07-11 14:29:00,81.9,73.9,29.90,SE,133,0.0,3.0,77,0.00,,,0.00,HR-IXPWINDi_r2_v1.2.,2013-07-11 18:29:00,
2013-07-11 14:35:00,81.8,72.7,29.89,SE,133,0.0,1.0,74,0.00,,,0.00,HR-IXPWINDi_r2_v1.2.,2013-07-11 18:35:00,
2013-07-11 14:40:00,81.7,73.0,29.89,SE,133,0.0,1.0,75,0.00,,,0.00,HR-IXPWINDi_r2_v1.2.,2013-07-11 18:40:00,
2013-07-11 14:45:00,81.7,73.3,29.89,SE,133,0.0,1.0,76,0.00,,,0.00,HR-IXPWINDi_r2_v1.2.,2013-07-11 18:45:00,
2013-07-11 14:50:00,81.8,74.6,29.89,SE,133,0.0,0.0,79,0.00,,,0.00,HR-IXPWINDi_r2_v1.2.,2013-07-11 18:50:00,
2013-07-11 14:55:00,81.7,74.1,29.89,SE,133,0.0,0.0,78,0.00,,,0.00,HR-IXPWINDi_r2_v1.2.,2013-07-11 18:55:00,
2013-07-11 15:00:00,81.6,74.0,29.88,SE,133,0.0,1.0,78,0.00,,,0.00,HR-IXPWINDi_r2_v1.2.,2013-07-11 19:00:00,
2013-07-11 15:05:00,81.6,75.9,29.88,SE,133,0.0,1.0,83,0.00,,,0.00,HR-IXPWINDi_r2_v1.2.,2013-07-11 19:05:00,
2013-07-11 15:10:00,81.1,74.3,29.89,NNE,20,0.0,2.0,80,0.00,,,0.00,HR-IXPWINDi_r2_v1.2.,2013-07-11 19:10:00,
2013-07-11 15:16:00,80.8,73.2,29.88,NNE,20,0.0,2.0,78,0.00,,,0.00,HR-IXPWINDi_r2_v1.2.,2013-07-11 19:16:00,
2013-07-11 15:21:00,80.7,72.4,29.88,NNW,333,0.0,2.0,76,0.00,,,0.00,HR-IXPWINDi_r2_v1.2.,2013-07-11 19:21:00,
2013-07-11 15:26:00,80.9,74.1,29.88,NNW,333,0.0,2.0,80,0.00,,,0.00,HR-IXPWINDi_r2_v1.2.,2013-07-11 19:26:00,
2013-07-11 15:32:00,81.1,73.9,29.88,NW,322,0.0,1.0,79,0.00,,,0.00,HR-IXPWINDi_r2_v1.2.,2013-07-11 19:32:00,
2013-07-11 15:37:00,81.2,74.8,29.88,NW,322,0.0,1.0,81,0.00,,,0.00,HR-IXPWINDi_r2_v1.2.,2013-07-11 19:37:00,
2013-07-11 15:42:00,81.2,73.6,29.88,NW,322,0.0,0.0,78,0.00,,,0.00,HR-IXPWINDi_r2_v1.2.,2013-07-11 19:42:00,
2013-07-11 15:47:00,81.1,74.3,29.87,NW,322,0.0,0.0,80,0.00,,,0.00,HR-IXPWINDi_r2_v1.2.,2013-07-11 19:47:00,
2013-07-11 15:53:00,81.0,74.9,29.87,NW,322,0.0,0.0,82,0.00,,,0.00,HR-IXPWINDi_r2_v1.2.,2013-07-11 19:53:00,
2013-07-11 15:58:00,81.0,74.6,29.87,NW,322,0.0,1.0,81,0.00,,,0.00,HR-IXPWINDi_r2_v1.2.,2013-07-11 19:58:00,
2013-07-11 16:03:00,81.5,74.7,29.87,NW,322,0.0,1.0,80,0.00,,,0.00,HR-IXPWINDi_r2_v1.2.,2013-07-11 20:03:00,
2013-07-11 16:08:00,82.0,74.4,29.88,ESE,118,0.0,3.0,78,0.00,,,0.00,HR-IXPWINDi_r2_v1.2.,2013-07-11 20:08:00,
2013-07-11 16:13:00,82.1,74.1,29.88,ESE,103,0.0,3.0,77,0.00,,,0.00,HR-IXPWINDi_r2_v1.2.,2013-07-11 20:13:00,
2013-07-11 16:19:00,82.2,73.8,29.88,ESE,113,0.0,2.0,76,0.00,,,0.00,HR-IXPWINDi_r2_v1.2.,2013-07-11 20:19:00,
2013-07-11 16:24:00,82.0,74.0,29.87,East,101,0.0,1.0,77,0.00,,,0.00,HR-IXPWINDi_r2_v1.2.,2013-07-11 20:24:00,
2013-07-11 16:29:00,81.7,74.5,29.87,East,100,0.0,1.0,79,0.00,,,0.00,HR-IXPWINDi_r2_v1.2.,2013-07-11 20:29:00,
2013-07-11 16:34:00,81.4,75.3,29.87,East,101,0.0,0.0,82,0.00,,,0.00,HR-IXPWINDi_r2_v1.2.,2013-07-11 20:34:00,
2013-07-11 16:39:00,81.2,75.1,29.87,East,101,0.0,0.0,82,0.00,,,0.00,HR-IXPWINDi_r2_v1.2.,2013-07-11 20:39:00,
2013-07-11 16:45:00,81.0,74.2,29.87,East,101,0.0,1.0,80,0.00,,,0.00,HR-IXPWINDi_r2_v1.2.,2013-07-11 20:45:00,
2013-07-11 16:50:00,80.9,74.5,29.87,ESE,102,0.0,1.0,81,0.00,,,0.00,HR-IXPWINDi_r2_v1.2.,2013-07-11 20:50:00,
2013-07-11 16:55:00,80.8,75.1,29.87,ESE,102,0.0,1.0,83,0.00,,,0.00,HR-IXPWINDi_r2_v1.2.,2013-07-11 20:55:00,
2013-07-11 17:00:00,80.8,75.1,29.87,ESE,102,0.0,1.0,83,0.00,,,0.00,HR-IXPWINDi_r2_v1.2.,2013-07-11 21:00:00,
2013-07-11 17:06:00,80.6,74.9,29.87,East,101,0.0,1.0,83,0.00,,,0.00,HR-IXPWINDi_r2_v1.2.,2013-07-11 21:06:00,
2013-07-11 17:11:00,80.4,74.7,29.87,East,101,0.0,1.0,83,0.00,,,0.00,HR-IXPWINDi_r2_v1.2.,2013-07-11 21:11:00,
2013-07-11 17:16:00,80.3,75.0,29.87,ESE,102,0.0,1.0,84,0.00,,,0.00,HR-IXPWINDi_r2_v1.2.,2013-07-11 21:16:00,
2013-07-11 17:21:00,80.2,74.9,29.87,ESE,102,0.0,1.0,84,0.00,,,0.00,HR-IXPWINDi_r2_v1.2.,2013-07-11 21:21:00,
2013-07-11 17:26:00,80.1,74.8,29.87,ESE,102,0.0,1.0,84,0.00,,,0.00,HR-IXPWINDi_r2_v1.2.,2013-07-11 21:26:00,
2013-07-11 17:31:00,80.1,74.8,29.87,ESE,102,0.0,1.0,84,0.00,,,0.00,HR-IXPWINDi_r2_v1.2.,2013-07-11 21:31:00,
2013-07-11 17:37:00,80.0,75.0,29.87,ESE,102,0.0,0.0,85,0.00,,,0.00,HR-IXPWINDi_r2_v1.2.,2013-07-11 21:37:00,
2013-07-11 17:42:00,79.8,75.2,29.87,ESE,102,0.0,0.0,86,0.00,,,0.00,HR-IXPWINDi_r2_v1.2.,2013-07-11 21:42:00,
2013-07-11 17:47:00,79.7,74.7,29.86,ESE,102,0.0,0.0,85,0.00,,,0.00,HR-IXPWINDi_r2_v1.2.,2013-07-11 21:47:00,
2013-07-11 17:52:00,79.6,74.6,29.86,ESE,102,1.0,1.0,85,0.00,,,0.00,HR-IXPWINDi_r2_v1.2.,2013-07-11 21:52:00,
2013-07-11 17:58:00,79.5,74.5,29.86,ESE,102,0.0,1.0,85,0.00,,,0.00,HR-IXPWINDi_r2_v1.2.,2013-07-11 21:58:00,
2013-07-11 18:03:00,79.5,74.2,29.86,ESE,110,0.0,2.0,84,0.00,,,0.00,HR-IXPWINDi_r2_v1.2.,2013-07-11 22:03:00,
2013-07-11 18:09:00,79.4,74.4,29.87,SE,130,0.0,2.0,85,0.00,,,0.00,HR-IXPWINDi_r2_v1.2.,2013-07-11 22:09:00,
2013-07-11 18:14:00,79.3,74.3,29.86,SE,128,0.0,2.0,85,0.00,,,0.00,HR-IXPWINDi_r2_v1.2.,2013-07-11 22:14:00,
2013-07-11 18:20:00,79.1,74.1,29.87,ESE,115,0.0,2.0,85,0.00,,,0.00,HR-IXPWINDi_r2_v1.2.,2013-07-11 22:20:00,
2013-07-11 18:25:00,79.0,74.4,29.87,ESE,111,0.0,2.0,86,0.00,,,0.00,HR-IXPWINDi_r2_v1.2.,2013-07-11 22:25:00,
2013-07-11 18:30:00,78.9,74.3,29.87,ESE,111,0.0,2.0,86,0.00,,,0.00,HR-IXPWINDi_r2_v1.2.,2013-07-11 22:30:00,
2013-07-11 18:35:00,78.6,74.0,29.87,ESE,111,0.0,1.0,86,0.00,,,0.00,HR-IXPWINDi_r2_v1.2.,2013-07-11 22:35:00,
2013-07-11 18:41:00,78.4,74.2,29.87,ESE,111,0.0,0.0,87,0.00,,,0.00,HR-IXPWINDi_r2_v1.2.,2013-07-11 22:41:00,
2013-07-11 18:46:00,78.3,74.4,29.87,ESE,111,0.0,0.0,88,0.00,,,0.00,HR-IXPWINDi_r2_v1.2.,2013-07-11 22:46:00,
2013-07-11 18:51:00,78.2,74.6,29.87,ESE,111,0.0,0.0,89,0.00,,,0.00,HR-IXPWINDi_r2_v1.2.,2013-07-11 22:51:00,
2013-07-11 18:56:00,78.1,74.9,29.87,ESE,111,0.0,0.0,90,0.00,,,0.00,HR-IXPWINDi_r2_v1.2.,2013-07-11 22:56:00,
2013-07-11 19:01:00,77.9,74.7,29.88,ESE,111,0.0,0.0,90,0.00,,,0.00,HR-IXPWINDi_r2_v1.2.,2013-07-11 23:01:00,
2013-07-11 19:07:00,77.7,74.5,29.88,ESE,111,0.0,0.0,90,0.00,,,0.00,HR-IXPWINDi_r2_v1.2.,2013-07-11 23:07:00,
2013-07-11 19:12:00,77.6,74.4,29.88,ESE,111,0.0,0.0,90,0.00,,,0.00,HR-IXPWINDi_r2_v1.2.,2013-07-11 23:12:00,
2013-07-11 19:17:00,77.4,74.5,29.88,ESE,111,0.0,0.0,91,0.00,,,0.00,HR-IXPWINDi_r2_v1.2.,2013-07-11 23:17:00,
2013-07-11 19:22:00,77.4,74.5,29.88,ESE,111,0.0,0.0,91,0.00,,,0.00,HR-IXPWINDi_r2_v1.2.,2013-07-11 23:22:00,
2013-07-11 19:27:00,77.3,74.4,29.88,ESE,111,0.0,0.0,91,0.00,,,0.00,HR-IXPWINDi_r2_v1.2.,2013-07-11 23:27:00,
2013-07-11 19:33:00,77.1,74.2,29.88,ESE,111,0.0,0.0,91,0.00,,,0.00,HR-IXPWINDi_r2_v1.2.,2013-07-11 23:33:00,
2013-07-11 19:38:00,77.0,74.4,29.88,ESE,111,0.0,0.0,92,0.00,,,0.00,HR-IXPWINDi_r2_v1.2.,2013-07-11 23:38:00,
2013-07-11 19:43:00,76.8,74.2,29.87,ESE,111,0.0,0.0,92,0.00,,,0.00,HR-IXPWINDi_r2_v1.2.,2013-07-11 23:43:00,
2013-07-11 19:48:00,76.7,74.1,29.87,ESE,111,0.0,0.0,92,0.00,,,0.00,HR-IXPWINDi_r2_v1.2.,2013-07-11 23:48:00,
2013-07-11 19:54:00,76.5,73.9,29.87,ESE,111,0.0,0.0,92,0.00,,,0.00,HR-IXPWINDi_r2_v1.2.,2013-07-11 23:54:00,
2013-07-11 19:59:00,76.4,73.8,29.87,ESE,111,0.0,0.0,92,0.00,,,0.00,HR-IXPWINDi_r2_v1.2.,2013-07-11 23:59:00,
2013-07-11 20:04:00,76.3,73.7,29.87,ESE,111,0.0,0.0,92,0.00,,,0.00,HR-IXPWINDi_r2_v1.2.,2013-07-12 00:04:00,
2013-07-11 20:09:00,76.3,74.1,29.87,ESE,111,0.0,0.0,93,0.00,,,0.00,HR-IXPWINDi_r2_v1.2.,2013-07-12 00:09:00,
2013-07-11 20:14:00,76.2,74.0,29.88,ESE,111,0.0,0.0,93,0.00,,,0.00,HR-IXPWINDi_r2_v1.2.,2013-07-12 00:14:00,
2013-07-11 20:20:00,76.2,74.0,29.88,ESE,111,0.0,0.0,93,0.00,,,0.00,HR-IXPWINDi_r2_v1.2.,2013-07-12 00:20:00,
2013-07-11 20:25:00,76.0,73.5,29.88,ESE,111,0.0,0.0,92,0.00,,,0.00,HR-IXPWINDi_r2_v1.2.,2013-07-12 00:25:00,
2013-07-11 20:30:00,76.0,73.8,29.88,ESE,111,0.0,0.0,93,0.00,,,0.00,HR-IXPWINDi_r2_v1.2.,2013-07-12 00:30:00,
2013-07-11 20:35:00,75.8,73.6,29.88,ESE,111,0.0,0.0,93,0.00,,,0.00,HR-IXPWINDi_r2_v1.2.,2013-07-12 00:35:00,
2013-07-11 20:40:00,75.7,73.5,29.88,ESE,111,0.0,0.0,93,0.00,,,0.00,HR-IXPWINDi_r2_v1.2.,2013-07-12 00:40:00,
2013-07-11 20:45:00,75.4,72.9,29.88,ESE,111,0.0,1.0,92,0.00,,,0.00,HR-IXPWINDi_r2_v1.2.,2013-07-12 00:45:00,
2013-07-11 20:50:00,75.2,72.0,29.87,ESE,113,0.0,2.0,90,0.00,,,0.00,HR-IXPWINDi_r2_v1.2.,2013-07-12 00:50:00,
2013-07-11 20:55:00,75.0,71.8,29.88,ESE,113,0.0,2.0,90,0.00,,,0.00,HR-IXPWINDi_r2_v1.2.,2013-07-12 00:55:00,
2013-07-11 21:00:00,74.9,71.7,29.88,ESE,112,0.0,2.0,90,0.00,,,0.00,HR-IXPWINDi_r2_v1.2.,2013-07-12 01:00:00,
2013-07-11 21:05:00,74.7,71.5,29.88,ESE,112,0.0,2.0,90,0.00,,,0.00,HR-IXPWINDi_r2_v1.2.,2013-07-12 01:05:00,
2013-07-11 21:11:00,74.5,71.3,29.88,ESE,112,0.0,1.0,90,0.00,,,0.00,HR-IXPWINDi_r2_v1.2.,2013-07-12 01:11:00,
2013-07-11 21:16:00,74.3,71.4,29.88,ESE,112,0.0,0.0,91,0.00,,,0.00,HR-IXPWINDi_r2_v1.2.,2013-07-12 01:16:00,
2013-07-11 21:21:00,74.2,71.3,29.88,ESE,112,0.0,1.0,91,0.00,,,0.00,HR-IXPWINDi_r2_v1.2.,2013-07-12 01:21:00,
2013-07-11 21:26:00,74.1,71.6,29.88,ESE,112,0.0,1.0,92,0.00,,,0.00,HR-IXPWINDi_r2_v1.2.,2013-07-12 01:26:00,
2013-07-11 21:31:00,74.0,71.5,29.88,ESE,112,0.0,0.0,92,0.00,,,0.00,HR-IXPWINDi_r2_v1.2.,2013-07-12 01:31:00,
2013-07-11 21:36:00,74.0,71.5,29.88,ESE,112,0.0,1.0,92,0.00,,,0.00,HR-IXPWINDi_r2_v1.2.,2013-07-12 01:36:00,
2013-07-11 21:41:00,73.9,71.4,29.89,SE,128,0.0,1.0,92,0.00,,,0.00,HR-IXPWINDi_r2_v1.2.,2013-07-12 01:41:00,
2013-07-11 21:46:00,73.9,71.7,29.88,ESE,107,0.0,2.0,93,0.00,,,0.00,HR-IXPWINDi_r2_v1.2.,2013-07-12 01:46:00,
2013-07-11 21:52:00,73.8,71.6,29.89,ESE,107,0.0,2.0,93,0.00,,,0.00,HR-IXPWINDi_r2_v1.2.,2013-07-12 01:52:00,
2013-07-11 21:57:00,73.7,71.8,29.89,ESE,107,0.0,0.0,94,0.00,,,0.00,HR-IXPWINDi_r2_v1.2.,2013-07-12 01:57:00,
2013-07-11 22:02:00,73.6,71.7,29.89,ESE,107,0.0,1.0,94,0.00,,,0.00,HR-IXPWINDi_r2_v1.2.,2013-07-12 02:02:00,
2013-07-11 22:07:00,73.5,71.6,29.89,ESE,107,0.0,1.0,94,0.00,,,0.00,HR-IXPWINDi_r2_v1.2.,2013-07-12 02:07:00,
2013-07-11 22:12:00,73.4,71.5,29.89,ESE,107,0.0,1.0,94,0.00,,,0.00,HR-IXPWINDi_r2_v1.2.,2013-07-12 02:12:00,
2013-07-11 22:17:00,73.3,71.4,29.90,ESE,107,1.0,2.0,94,0.17,,,0.02,HR-IXPWINDi_r2_v1.2.,2013-07-12 02:17:00,
2013-07-11 22:22:00,73.2,71.6,29.90,ESE,109,0.0,2.0,95,0.22,,,0.04,HR-IXPWINDi_r2_v1.2.,2013-07-12 02:22:00,
2013-07-11 22:28:00,73.0,71.4,29.89,ESE,109,0.0,1.0,95,0.08,,,0.04,HR-IXPWINDi_r2_v1.2.,2013-07-12 02:28:00,
2013-07-11 22:33:00,72.8,71.2,29.89,ESE,109,0.0,2.0,95,0.07,,,0.05,HR-IXPWINDi_r2_v1.2.,2013-07-12 02:33:00,
2013-07-11 22:38:00,72.5,70.9,29.89,ESE,109,0.0,2.0,95,0.08,,,0.06,HR-IXPWINDi_r2_v1.2.,2013-07-12 02:38:00,
2013-07-11 22:43:00,72.2,70.6,29.90,ESE,109,0.0,2.0,95,0.14,,,0.07,HR-IXPWINDi_r2_v1.2.,2013-07-12 02:43:00,
2013-07-11 22:48:00,72.0,70.4,29.89,ESE,110,0.0,1.0,95,0.08,,,0.07,HR-IXPWINDi_r2_v1.2.,2013-07-12 02:48:00,
2013-07-11 22:54:00,71.8,70.5,29.89,ESE,110,0.0,1.0,96,0.05,,,0.07,HR-IXPWINDi_r2_v1.2.,2013-07-12 02:54:00,
2013-07-11 22:59:00,71.7,70.4,29.90,ESE,110,0.0,1.0,96,0.00,,,0.07,HR-IXPWINDi_r2_v1.2.,2013-07-12 02:59:00,
2013-07-11 23:04:00,71.5,70.2,29.89,ESE,110,0.0,0.0,96,0.00,,,0.07,HR-IXPWINDi_r2_v1.2.,2013-07-12 03:04:00,
2013-07-11 23:09:00,71.4,70.1,29.90,ESE,110,0.0,0.0,96,0.00,,,0.07,HR-IXPWINDi_r2_v1.2.,2013-07-12 03:09:00,
2013-07-11 23:14:00,71.3,70.3,29.90,ESE,110,0.0,1.0,97,0.00,,,0.07,HR-IXPWINDi_r2_v1.2.,2013-07-12 03:14:00,
2013-07-11 23:19:00,71.1,70.1,29.90,ESE,110,0.0,1.0,97,0.00,,,0.07,HR-IXPWINDi_r2_v1.2.,2013-07-12 03:19:00,
2013-07-11 23:24:00,71.0,70.0,29.90,ESE,110,0.0,1.0,97,0.00,,,0.07,HR-IXPWINDi_r2_v1.2.,2013-07-12 03:24:00,
2013-07-11 23:30:00,71.0,70.0,29.90,ESE,110,0.0,1.0,97,0.00,,,0.07,HR-IXPWINDi_r2_v1.2.,2013-07-12 03:30:00,
2013-07-11 23:35:00,70.8,69.8,29.90,ESE,110,0.0,1.0,97,0.00,,,0.07,HR-IXPWINDi_r2_v1.2.,2013-07-12 03:35:00,
2013-07-11 23:40:00,70.7,69.7,29.90,ESE,110,0.0,1.0,97,0.00,,,0.07,HR-IXPWINDi_r2_v1.2.,2013-07-12 03:40:00,
2013-07-11 23:45:00,70.6,69.6,29.89,ESE,110,0.0,1.0,97,0.00,,,0.07,HR-IXPWINDi_r2_v1.2.,2013-07-12 03:45:00,
2013-07-11 23:50:00,70.5,69.5,29.90,ESE,110,0.0,0.0,97,0.00,,,0.07,HR-IXPWINDi_r2_v1.2.,2013-07-12 03:50:00,
2013-07-11 23:55:00,70.3,69.3,29.89,ESE,110,0.0,1.0,97,0.00,,,0.07,HR-IXPWINDi_r2_v1.2.,2013-07-12 03:55:00,